CW7186 Chesterfield NJ US current weather conditions

sailwx.info

Wind from 330 at 7 knots

Air temperature 4.4° C
Dewpoint -4.8° C

Last reported at 2020-Jan-28 21:05 UTC.
Time now 2020-Jan-28 22:02 UTC

Location: N 40°08' W 074°47'.
View on Google Maps.

See reports from other nearby stations

  
Tides and Currents Weather Stations Pressure Air Temp Water Temp Dewpoint Dewpoint Depression Visibility Wind Speed Wind Dir Waves Ship Positions
date/time (UTC)wind fromknots sea level pressurealtimeterstation pressurevisibilityair tempwater tempwave heightnotes
2020-Jan-28 21:05 330 7 4.4
2020-Jan-28 21:00 345 4 4.4
2020-Jan-28 20:55 355 6 4.4
2020-Jan-28 20:50 001 1 gusting 7 4.4
2020-Jan-28 20:45 329 5 4.4
2020-Jan-28 20:40 355 3 4.4
2020-Jan-28 20:35 345 5 4.4
2020-Jan-28 20:30 317 4 4.4
2020-Jan-28 20:25 320 5 gusting 13 4.4
2020-Jan-28 20:20 246 5 4.4
2020-Jan-28 20:15 360 6 4.4
2020-Jan-28 20:10 003 1 4.4
2020-Jan-28 20:05 012 3 4.4
2020-Jan-28 20:00 330 3 gusting 13 4.4
2020-Jan-28 19:55 012 5 4.4
2020-Jan-28 19:50 355 10 4.4
2020-Jan-28 19:45 334 2 4.4
2020-Jan-28 19:40 331 3 4.4
2020-Jan-28 19:35 336 7 gusting 12 4.4
2020-Jan-28 19:30 317 5 4.4
2020-Jan-28 19:25 321 7 4.4
2020-Jan-28 19:20 290 1 4.4
2020-Jan-28 19:15 345 7 4.4
2020-Jan-28 19:10 328 5 gusting 13 4.4
2020-Jan-28 19:05 329 5 4.4
2020-Jan-28 19:00 332 10 4.4
2020-Jan-28 18:55 001 4 4.4
2020-Jan-28 18:50 319 3 4.4
2020-Jan-28 18:45 270 6 gusting 13 4.4
2020-Jan-28 18:40 247 7 5.0
2020-Jan-28 18:35 345 10 5.0
2020-Jan-28 18:30 355 10 5.0
2020-Jan-28 18:25 299 0 5.0
2020-Jan-28 18:20 345 15 gusting 16 5.0
2020-Jan-28 18:15 004 4 5.6
2020-Jan-28 18:10 001 4 5.6
2020-Jan-28 18:05 232 6 5.6
2020-Jan-28 18:00 307 6 5.6
2020-Jan-28 17:55 292 7 gusting 13 5.6
2020-Jan-28 17:50 298 9 5.6
2020-Jan-28 17:45 355 3 5.6
2020-Jan-28 17:40 189 8 5.6
2020-Jan-28 17:35 317 2 5.6
2020-Jan-28 17:30 024 4 gusting 15 5.6
2020-Jan-28 17:25 248 1 5.6
2020-Jan-28 17:20